Time,TemperatureF,DewpointF,PressureIn,WindDirection,WindDirectionDegrees,WindSpeedMPH,WindSpeedGustMPH,Humidity,HourlyPrecipIn,Conditions,Clouds,dailyrainin,SoftwareType,DateUTC
2013-10-18 00:06:00,57.6,54.1,29.65,West,270,7.8,-999.0,88,-99.99,,,0.00,Acu-Link.com,2013-10-18 04:06:00,
2013-10-18 00:21:00,57.6,53.8,29.65,WSW,247,6.3,-999.0,87,-99.99,,,0.00,Acu-Link.com,2013-10-18 04:21:00,
2013-10-18 00:36:00,57.2,52.4,29.66,West,270,6.8,-999.0,84,-99.99,,,0.00,Acu-Link.com,2013-10-18 04:36:00,
2013-10-18 00:51:00,56.5,51.4,29.67,West,270,5.8,-999.0,83,-99.99,,,0.00,Acu-Link.com,2013-10-18 04:51:00,
2013-10-18 01:07:00,56.1,50.7,29.67,SW,225,8.3,-999.0,82,-99.99,,,0.00,Acu-Link.com,2013-10-18 05:07:00,
2013-10-18 01:22:00,56.1,50.3,29.68,West,270,11.9,-999.0,81,-99.99,,,0.00,Acu-Link.com,2013-10-18 05:22:00,
2013-10-18 01:37:00,55.9,49.8,29.68,West,270,4.7,-999.0,80,-99.99,,,0.00,Acu-Link.com,2013-10-18 05:37:00,
2013-10-18 01:52:00,55.6,49.9,29.68,West,270,6.8,-999.0,81,-99.99,,,0.00,Acu-Link.com,2013-10-18 05:52:00,
2013-10-18 02:08:00,55.2,48.8,29.69,NW,315,7.3,-999.0,79,-99.99,,,0.00,Acu-Link.com,2013-10-18 06:08:00,
2013-10-18 02:23:00,54.7,49.0,29.70,SW,225,1.1,-999.0,81,-99.99,,,0.00,Acu-Link.com,2013-10-18 06:23:00,
2013-10-18 02:38:00,54.5,48.8,29.70,SW,225,3.7,-999.0,81,-99.99,,,0.00,Acu-Link.com,2013-10-18 06:38:00,
2013-10-18 02:53:00,54.0,48.3,29.70,SSW,202,4.2,-999.0,81,-99.99,,,0.00,Acu-Link.com,2013-10-18 06:53:00,
2013-10-18 03:09:00,53.6,48.2,29.70,West,270,3.7,-999.0,82,-99.99,,,0.00,Acu-Link.com,2013-10-18 07:09:00,
2013-10-18 03:24:00,52.9,47.6,29.70,SW,225,3.7,-999.0,82,-99.99,,,0.00,Acu-Link.com,2013-10-18 07:24:00,
2013-10-18 03:39:00,52.7,47.7,29.70,WNW,292,4.7,-999.0,83,-99.99,,,0.00,Acu-Link.com,2013-10-18 07:39:00,
2013-10-18 03:54:00,52.3,47.6,29.70,NW,315,7.3,-999.0,84,-99.99,,,0.00,Acu-Link.com,2013-10-18 07:54:00,
2013-10-18 04:10:00,52.3,47.6,29.71,NW,315,3.2,-999.0,84,-99.99,,,0.00,Acu-Link.com,2013-10-18 08:10:00,
2013-10-18 04:26:00,52.7,47.4,29.70,SW,225,3.2,-999.0,82,-99.99,,,0.00,Acu-Link.com,2013-10-18 08:26:00,
2013-10-18 04:41:00,52.5,47.5,29.71,WSW,247,2.7,-999.0,83,-99.99,,,0.00,Acu-Link.com,2013-10-18 08:41:00,
2013-10-18 04:56:00,51.4,47.0,29.71,NNW,337,2.7,-999.0,85,-99.99,,,0.00,Acu-Link.com,2013-10-18 08:56:00,
2013-10-18 05:11:00,51.6,46.9,29.74,West,270,4.2,-999.0,84,-99.99,,,0.00,Acu-Link.com,2013-10-18 09:11:00,
2013-10-18 05:26:00,52.0,47.0,29.74,West,270,1.7,-999.0,83,-99.99,,,0.00,Acu-Link.com,2013-10-18 09:26:00,
2013-10-18 05:42:00,52.5,46.8,29.74,WSW,247,3.2,-999.0,81,-99.99,,,0.00,Acu-Link.com,2013-10-18 09:42:00,
2013-10-18 05:57:00,52.2,46.5,29.75,West,270,2.7,-999.0,81,-99.99,,,0.00,Acu-Link.com,2013-10-18 09:57:00,
2013-10-18 06:13:00,52.2,46.2,29.75,WSW,247,2.7,-999.0,80,-99.99,,,0.00,Acu-Link.com,2013-10-18 10:13:00,
2013-10-18 06:28:00,52.2,46.5,29.75,SW,225,3.7,-999.0,81,-99.99,,,0.00,Acu-Link.com,2013-10-18 10:28:00,
2013-10-18 06:43:00,52.2,46.2,29.77,West,270,2.7,-999.0,80,-99.99,,,0.00,Acu-Link.com,2013-10-18 10:43:00,
2013-10-18 06:59:00,52.2,46.2,29.77,West,270,2.7,-999.0,80,-99.99,,,0.00,Acu-Link.com,2013-10-18 10:59:00,
2013-10-18 07:15:00,52.2,45.6,29.77,West,270,2.2,-999.0,78,-99.99,,,0.00,Acu-Link.com,2013-10-18 11:15:00,
2013-10-18 07:30:00,52.2,45.9,29.77,WSW,247,4.2,-999.0,79,-99.99,,,0.00,Acu-Link.com,2013-10-18 11:30:00,
2013-10-18 07:45:00,52.3,45.6,29.79,SSW,202,2.2,-999.0,78,-99.99,,,0.00,Acu-Link.com,2013-10-18 11:45:00,
2013-10-18 08:01:00,52.5,45.8,29.79,SW,225,4.2,-999.0,78,-99.99,,,0.00,Acu-Link.com,2013-10-18 12:01:00,
2013-10-18 08:17:00,54.0,46.3,29.80,West,270,5.3,-999.0,75,-99.99,,,0.00,Acu-Link.com,2013-10-18 12:17:00,
2013-10-18 08:33:00,54.3,46.5,29.79,SSW,202,3.2,-999.0,75,-99.99,,,0.00,Acu-Link.com,2013-10-18 12:33:00,
2013-10-18 08:49:00,54.0,46.6,29.82,WSW,247,4.7,-999.0,76,-99.99,,,0.00,Acu-Link.com,2013-10-18 12:49:00,
2013-10-18 09:04:00,53.8,46.8,29.81,SW,225,3.2,-999.0,77,-99.99,,,0.00,Acu-Link.com,2013-10-18 13:04:00,
2013-10-18 09:20:00,54.0,46.6,29.82,West,270,5.8,-999.0,76,-99.99,,,0.00,Acu-Link.com,2013-10-18 13:20:00,
2013-10-18 09:35:00,57.6,47.9,29.83,SW,225,6.3,-999.0,70,-99.99,,,0.00,Acu-Link.com,2013-10-18 13:35:00,
2013-10-18 09:51:00,55.8,47.3,29.82,West,270,5.8,-999.0,73,-99.99,,,0.00,Acu-Link.com,2013-10-18 13:51:00,
2013-10-18 10:07:00,55.4,47.3,29.85,West,270,6.3,-999.0,74,-99.99,,,0.00,Acu-Link.com,2013-10-18 14:07:00,
2013-10-18 10:22:00,55.4,46.9,29.84,WSW,247,4.7,-999.0,73,-99.99,,,0.00,Acu-Link.com,2013-10-18 14:22:00,
2013-10-18 10:38:00,56.3,47.0,29.84,SSW,202,6.8,-999.0,71,-99.99,,,0.00,Acu-Link.com,2013-10-18 14:38:00,
2013-10-18 10:53:00,56.8,46.7,29.85,SW,225,4.7,-999.0,69,-99.99,,,0.00,Acu-Link.com,2013-10-18 14:53:00,
2013-10-18 11:09:00,57.6,47.1,29.85,SSW,202,5.3,-999.0,68,-99.99,,,0.00,Acu-Link.com,2013-10-18 15:09:00,
2013-10-18 11:25:00,57.0,46.9,29.85,SSW,202,3.7,-999.0,69,-99.99,,,0.00,Acu-Link.com,2013-10-18 15:25:00,
2013-10-18 11:40:00,57.2,47.1,29.85,West,270,6.8,-999.0,69,-99.99,,,0.00,Acu-Link.com,2013-10-18 15:40:00,
2013-10-18 11:56:00,57.2,46.7,29.85,WNW,292,5.8,-999.0,68,-99.99,,,0.00,Acu-Link.com,2013-10-18 15:56:00,
2013-10-18 12:12:00,57.9,47.0,29.85,West,270,4.7,-999.0,67,-99.99,,,0.00,Acu-Link.com,2013-10-18 16:12:00,
2013-10-18 12:27:00,58.1,47.2,29.84,West,270,6.3,-999.0,67,-99.99,,,0.00,Acu-Link.com,2013-10-18 16:27:00,
2013-10-18 12:42:00,58.8,47.1,29.84,WSW,247,5.8,-999.0,65,-99.99,,,0.00,Acu-Link.com,2013-10-18 16:42:00,
2013-10-18 12:58:00,59.9,46.8,29.84,WNW,292,5.3,-999.0,62,-99.99,,,0.00,Acu-Link.com,2013-10-18 16:58:00,
2013-10-18 13:30:00,60.1,47.0,29.83,WSW,247,6.8,-999.0,62,-99.99,,,0.00,Acu-Link.com,2013-10-18 17:30:00,
2013-10-18 13:46:00,60.3,45.5,29.83,SSW,202,6.8,-999.0,58,-99.99,,,0.00,Acu-Link.com,2013-10-18 17:46:00,
2013-10-18 14:01:00,60.3,45.0,29.83,West,270,4.7,-999.0,57,-99.99,,,0.00,Acu-Link.com,2013-10-18 18:01:00,
2013-10-18 14:17:00,62.1,45.3,29.84,SW,225,5.8,-999.0,54,-99.99,,,0.00,Acu-Link.com,2013-10-18 18:17:00,
2013-10-18 14:32:00,62.4,45.5,29.83,NE,45,2.7,-999.0,54,-99.99,,,0.00,Acu-Link.com,2013-10-18 18:32:00,
2013-10-18 14:48:00,62.6,44.2,29.82,WSW,247,6.8,-999.0,51,-99.99,,,0.00,Acu-Link.com,2013-10-18 18:48:00,
2013-10-18 15:04:00,62.4,44.5,29.82,West,270,4.2,-999.0,52,-99.99,,,0.00,Acu-Link.com,2013-10-18 19:04:00,
2013-10-18 15:19:00,61.7,44.4,29.82,West,270,2.7,-999.0,53,-99.99,,,0.00,Acu-Link.com,2013-10-18 19:19:00,
2013-10-18 15:34:00,61.9,44.6,29.82,North,0,1.7,-999.0,53,-99.99,,,0.00,Acu-Link.com,2013-10-18 19:34:00,
2013-10-18 15:49:00,62.4,43.0,29.82,WNW,292,4.2,-999.0,49,-99.99,,,0.00,Acu-Link.com,2013-10-18 19:49:00,
2013-10-18 16:04:00,63.3,43.3,29.81,SSW,202,4.2,-999.0,48,-99.99,,,0.00,Acu-Link.com,2013-10-18 20:04:00,
2013-10-18 16:19:00,63.1,43.1,29.81,West,270,1.1,-999.0,48,-99.99,,,0.00,Acu-Link.com,2013-10-18 20:19:00,
2013-10-18 16:35:00,63.3,42.2,29.80,SW,225,4.7,-999.0,46,-99.99,,,0.00,Acu-Link.com,2013-10-18 20:35:00,
2013-10-18 16:50:00,63.7,42.5,29.81,West,270,4.7,-999.0,46,-99.99,,,0.00,Acu-Link.com,2013-10-18 20:50:00,
2013-10-18 17:05:00,63.0,41.9,29.81,WSW,247,5.8,-999.0,46,-99.99,,,0.00,Acu-Link.com,2013-10-18 21:05:00,
2013-10-18 17:20:00,64.9,41.3,29.81,WNW,292,2.7,-999.0,42,-99.99,,,0.00,Acu-Link.com,2013-10-18 21:20:00,
2013-10-18 17:35:00,64.2,41.2,29.82,SW,225,2.7,-999.0,43,-99.99,,,0.00,Acu-Link.com,2013-10-18 21:35:00,
2013-10-18 17:51:00,62.6,43.2,29.82,West,270,0.0,-999.0,49,-99.99,,,0.00,Acu-Link.com,2013-10-18 21:51:00,
2013-10-18 18:06:00,59.2,43.5,29.82,SW,225,0.0,-999.0,56,-99.99,,,0.00,Acu-Link.com,2013-10-18 22:06:00,
2013-10-18 18:22:00,55.8,43.8,29.82,SW,225,0.0,-999.0,64,-99.99,,,0.00,Acu-Link.com,2013-10-18 22:22:00,
2013-10-18 18:37:00,53.8,44.6,29.82,South,180,0.0,-999.0,71,-99.99,,,0.00,Acu-Link.com,2013-10-18 22:37:00,
2013-10-18 18:52:00,51.1,44.8,29.82,South,180,0.0,-999.0,79,-99.99,,,0.00,Acu-Link.com,2013-10-18 22:52:00,
2013-10-18 19:07:00,49.6,44.7,29.83,South,180,0.0,-999.0,83,-99.99,,,0.00,Acu-Link.com,2013-10-18 23:07:00,
2013-10-18 19:25:00,48.4,43.5,29.84,WSW,247,0.0,-999.0,83,-99.99,,,0.00,Acu-Link.com,2013-10-18 23:25:00,
2013-10-18 19:40:00,46.8,43.4,29.84,SSW,202,0.0,-999.0,88,-99.99,,,0.00,Acu-Link.com,2013-10-18 23:40:00,
2013-10-18 19:55:00,45.9,43.1,29.84,NE,45,0.0,-999.0,90,-99.99,,,0.00,Acu-Link.com,2013-10-18 23:55:00,
2013-10-18 20:10:00,45.0,42.2,29.85,NE,45,0.0,-999.0,90,-99.99,,,0.00,Acu-Link.com,2013-10-19 00:10:00,
2013-10-18 20:25:00,44.1,41.6,29.85,SSE,157,0.0,-999.0,91,-99.99,,,0.00,Acu-Link.com,2013-10-19 00:25:00,
2013-10-18 20:40:00,43.9,42.6,29.85,East,90,0.0,-999.0,95,-99.99,,,0.00,Acu-Link.com,2013-10-19 00:40:00,
2013-10-18 20:56:00,43.5,42.4,29.86,NNW,337,0.0,-999.0,96,-99.99,,,0.00,Acu-Link.com,2013-10-19 00:56:00,
2013-10-18 21:11:00,42.8,41.7,29.86,SSE,157,0.0,-999.0,96,-99.99,,,0.00,Acu-Link.com,2013-10-19 01:11:00,
2013-10-18 21:26:00,42.3,41.0,29.87,SW,225,0.0,-999.0,95,-99.99,,,0.00,Acu-Link.com,2013-10-19 01:26:00,
2013-10-18 21:41:00,41.4,39.8,29.86,SW,225,0.0,-999.0,94,-99.99,,,0.00,Acu-Link.com,2013-10-19 01:41:00,
2013-10-18 21:56:00,40.8,39.7,29.87,NE,45,0.0,-999.0,96,-99.99,,,0.00,Acu-Link.com,2013-10-19 01:56:00,
2013-10-18 22:12:00,41.0,40.5,29.88,West,270,0.0,-999.0,98,-99.99,,,0.00,Acu-Link.com,2013-10-19 02:12:00,
2013-10-18 22:27:00,40.3,39.5,29.87,WNW,292,0.0,-999.0,97,-99.99,,,0.00,Acu-Link.com,2013-10-19 02:27:00,
2013-10-18 22:42:00,39.9,39.1,29.88,ESE,112,0.0,-999.0,97,-99.99,,,0.00,Acu-Link.com,2013-10-19 02:42:00,
2013-10-18 22:58:00,39.4,38.6,29.88,WSW,247,0.0,-999.0,97,-99.99,,,0.00,Acu-Link.com,2013-10-19 02:58:00,
2013-10-18 23:15:00,39.6,39.3,29.89,North,0,0.0,-999.0,99,-99.99,,,0.00,Acu-Link.com,2013-10-19 03:15:00,
2013-10-18 23:31:00,38.8,38.3,29.89,East,90,0.0,-999.0,98,-99.99,,,0.00,Acu-Link.com,2013-10-19 03:31:00,
2013-10-18 23:46:00,38.8,38.5,29.89,West,270,0.0,-999.0,99,-99.99,,,0.00,Acu-Link.com,2013-10-19 03:46:00,